RH
80 75 77 73 70 71 71 77 79 81 75 64 57 56 52 51 48 46 48 45 40 40 38 34 34 34 31
82 78 76 74 76 74 76 80 78 72 70 71 62 59 56 55 57 55 52 48 45 41 40 40 38 39 43
80 81 83 84 85 76 74 86 83 82 84 74 74 72 70 69 65 61 58 54 49 48 46 44 44 50 57
77 78 83 83 91 89 82 92 94 90 79 77 75 76 78 74 66 62 62 60 60 58 55 54 55 61 65
92 93 95 97 95 91 84 93 92 93 88 82 81 81 82 80 75 72 69 66 73 78 71 71 76 82 73
98 100 100 100 99 98 96 90 90 97 96 95 94 96 88 83 79 82 90 97 99 100 96 90 90 86 72
96 92 92 91 88 90 92 89 100 96 97 100 94 86 92 100 100 100 100 100 100 100 100 98 90 89 72
98 96 95 97 99 100 99 100 99 100 97 96 89 80 95 100 100 100 100 100 100 100 100 98 96 85 68
98 98 99 98 98 97 96 97 98 99 97 97 100 100 100 100 100 100 100 99 100 100 100 100 98 86 66
100 99 100 99 98 98 97 97 94 97 97 100 100 100 100 100 100 100 100 100 100 100 100 100 92 74 50
94 96 95 97 98 100 100 100 100 100 100 99 100 100 100 100 100 99 100 100 100 100 100 92 75 37 20
82 82 76 100 100 100 98 100 100 100 100 100 100 100 100 100 100 100 100 98 100 96 86 54 25 17 17
100 100 100 100 100 99 95 100 96 100 100 100 100 100 99 100 100 100 99 98 87 71 40 22 20 22 20
99 96 92 90 89 89 76 73 75 73 74 83 92 99 100 100 100 100 94 89 59 27 18 22 25 28 31
93 100 91 68 38 24 22 36 53 55 81 98 100 100 100 100 98 90 68 42 29 24 23 22 27 37 42
98 68 35 26 21 18 15 34 81 98 100 100 100 100 98 90 82 76 53 36 28 26 25 25 30 45 49
52 66 70 42 24 28 24 57 99 100 100 100 100 100 94 91 68 46 35 31 28 26 28 33 42 47 49
Wind_Speed
44 43 45 44 46 47 46 46 48 48 47 46 48 49 51 54 53 53 55 54 53 55 58 58 59 58 59
43 42 42 46 49 51 50 50 49 47 49 52 51 53 53 54 56 58 57 55 55 59 61 60 60 61 61
45 47 49 50 49 50 49 49 50 50 53 53 57 58 58 58 58 56 56 57 60 61 61 61 62 63 64
49 51 53 51 49 50 51 51 53 56 54 56 58 60 61 62 60 58 59 62 64 63 64 64 64 65 65
56 56 56 54 52 53 53 56 57 58 57 59 60 60 61 62 63 63 65 67 67 67 66 66 64 63 62
57 56 55 54 54 53 57 60 63 64 65 64 64 65 63 65 65 67 72 72 68 66 65 64 62 62 62
53 54 54 55 58 59 62 66 67 66 63 64 61 61 63 64 65 69 70 69 69 67 65 64 64 64 65
57 56 61 59 58 57 59 59 60 59 60 60 64 64 66 67 71 73 72 70 69 68 67 66 64 64 65
59 60 61 60 53 54 55 59 61 65 66 63 67 71 70 72 71 70 69 69 68 67 66 66 65 64 68
64 65 65 66 62 59 62 63 65 65 68 69 72 71 67 68 68 69 68 66 67 67 67 66 64 66 70
70 68 68 61 56 60 63 64 64 63 65 62 61 63 66 66 67 67 67 67 68 66 63 64 67 70 72
58 61 59 56 58 61 63 64 66 63 63 64 64 64 63 63 65 66 66 67 62 61 62 67 71 73 75
59 62 63 62 65 65 61 60 58 57 57 60 61 62 62 64 64 65 64 63 61 63 66 70 73 74 75
60 60 59 58 59 59 57 58 59 60 62 62 62 64 62 62 62 62 62 62 65 67 68 70 72 73 72
58 59 56 56 57 57 59 60 60 61 62 61 61 60 60 59 59 61 64 67 69 70 71 71 72 72 70
58 57 57 59 58 55 57 58 59 60 60 59 61 61 62 61 61 64 68 69 70 70 72 72 71 68 68
55 57 60 62 58 57 58 60 59 58 58 60 61 62 62 61 65 68 68 70 71 72 73 72 68 66 67
Wind_Direction
265 268 269 271 275 274 275 278 279 280 281 283 287 289 290 292 293 295 296 297 299 304 305 303 299 298 302
264 264 267 276 278 275 273 277 277 277 281 284 284 287 290 291 292 292 292 293 299 302 301 298 297 298 300
267 267 275 280 277 276 274 274 276 278 282 282 284 286 290 294 293 290 290 293 297 301 299 296 297 298 299
266 273 276 278 277 275 276 277 278 281 281 281 285 287 291 293 292 290 290 293 296 297 295 296 297 296 296
269 271 272 273 272 273 276 277 280 281 279 282 286 288 292 290 290 288 290 290 292 294 291 293 293 293 295
270 269 266 267 269 270 273 274 275 278 278 282 285 288 291 290 289 287 286 288 291 292 292 295 296 294 296
270 268 269 269 270 272 269 274 275 277 278 282 283 290 291 290 288 288 291 291 292 293 295 296 296 295 296
269 268 271 269 269 271 272 275 277 280 280 282 288 291 291 291 292 293 292 292 292 293 294 294 294 294 299
268 269 266 268 276 280 280 276 282 279 283 286 284 290 288 287 288 289 289 291 291 292 293 292 293 299 302
265 269 272 274 284 279 275 279 281 283 284 282 281 282 284 286 287 288 288 288 290 291 291 292 297 301 302
280 282 284 284 279 274 276 279 277 277 280 282 285 285 285 285 285 286 287 288 289 289 292 298 300 299 300
269 270 274 273 271 272 277 275 278 281 282 282 282 283 284 285 286 286 286 286 288 294 299 298 299 301 302
266 269 274 272 270 275 277 277 279 282 285 285 284 285 286 285 284 283 285 290 294 296 298 300 301 302 303
269 271 272 272 274 277 278 279 280 282 284 284 283 283 283 281 281 286 290 293 295 297 298 300 303 304 303
270 271 270 272 275 277 278 281 282 284 283 282 282 279 281 283 288 290 292 295 296 300 302 303 304 302 302
269 270 272 275 274 278 281 281 280 281 280 280 280 280 282 286 289 292 294 295 297 300 301 302 302 300 301
270 272 276 277 275 277 281 282 280 280 280 280 280 283 286 290 293 294 295 297 299 301 300 300 300 299 300